Time,TemperatureF,DewpointF,PressureIn,WindDirection,WindDirectionDegrees,WindSpeedMPH,WindSpeedGustMPH,Humidity,HourlyPrecipIn,Conditions,Clouds,dailyrainin,SoftwareType,DateUTC
2013-02-14 00:02:00,30.0,28.0,29.94,WNW,287,0.0,-999.0,91,-99.99,,,-99.99,,2013-02-14 06:02:00,
2013-02-14 00:11:00,29.0,27.0,29.94,WNW,287,0.0,-999.0,91,-99.99,,,-99.99,,2013-02-14 06:11:00,
2013-02-14 00:21:00,29.0,27.0,29.94,WNW,287,0.0,-999.0,91,-99.99,,,-99.99,,2013-02-14 06:21:00,
2013-02-14 00:31:00,29.0,27.0,29.94,WNW,287,0.0,-999.0,91,-99.99,,,-99.99,,2013-02-14 06:31:00,
2013-02-14 00:41:00,29.0,27.0,29.94,WNW,287,0.0,-999.0,91,-99.99,,,-99.99,,2013-02-14 06:41:00,
2013-02-14 00:52:00,29.0,27.0,29.94,WNW,287,0.0,-999.0,91,-99.99,,,-99.99,,2013-02-14 06:52:00,
2013-02-14 01:01:00,29.0,27.0,29.93,WNW,287,0.0,-999.0,92,-99.99,,,-99.99,,2013-02-14 07:01:00,
2013-02-14 01:11:00,29.0,27.0,29.94,WNW,287,0.0,-999.0,92,-99.99,,,-99.99,,2013-02-14 07:11:00,
2013-02-14 01:21:00,29.0,27.0,29.94,WNW,287,0.0,-999.0,92,-99.99,,,-99.99,,2013-02-14 07:21:00,
2013-02-14 01:31:00,29.0,27.0,29.94,WNW,287,0.0,-999.0,92,-99.99,,,-99.99,,2013-02-14 07:31:00,
2013-02-14 01:41:00,29.0,27.0,29.94,WNW,287,0.0,-999.0,92,-99.99,,,-99.99,,2013-02-14 07:41:00,
2013-02-14 01:52:00,29.0,27.0,29.94,WNW,287,0.0,-999.0,92,-99.99,,,-99.99,,2013-02-14 07:52:00,
2013-02-14 02:01:00,29.0,27.0,29.94,WNW,287,0.0,-999.0,92,-99.99,,,-99.99,,2013-02-14 08:01:00,
2013-02-14 02:11:00,29.0,27.0,29.94,WNW,287,0.0,-999.0,92,-99.99,,,-99.99,,2013-02-14 08:11:00,
2013-02-14 02:21:00,29.0,27.0,29.94,WNW,287,0.0,-999.0,92,-99.99,,,-99.99,,2013-02-14 08:21:00,
2013-02-14 02:32:00,29.0,27.0,29.94,WNW,287,0.0,-999.0,92,-99.99,,,-99.99,,2013-02-14 08:32:00,
2013-02-14 02:43:00,29.0,27.0,29.94,WNW,287,0.0,-999.0,92,-99.99,,,-99.99,,2013-02-14 08:43:00,
2013-02-14 02:52:00,29.0,27.0,29.94,WNW,287,0.0,-999.0,93,-99.99,,,-99.99,,2013-02-14 08:52:00,
2013-02-14 03:01:00,29.0,27.0,29.94,WNW,287,0.0,-999.0,92,-99.99,,,-99.99,,2013-02-14 09:01:00,
2013-02-14 03:11:00,29.0,27.0,29.94,WNW,287,0.0,-999.0,92,-99.99,,,-99.99,,2013-02-14 09:11:00,
2013-02-14 03:21:00,29.0,27.0,29.94,WNW,287,0.0,-999.0,92,-99.99,,,-99.99,,2013-02-14 09:21:00,
2013-02-14 03:31:00,29.0,27.0,29.94,WNW,287,0.0,-999.0,93,-99.99,,,-99.99,,2013-02-14 09:31:00,
2013-02-14 03:41:00,29.0,27.0,29.94,WNW,287,0.0,-999.0,93,-99.99,,,-99.99,,2013-02-14 09:41:00,
2013-02-14 03:52:00,28.0,26.0,29.94,WNW,287,0.0,-999.0,92,-99.99,,,-99.99,,2013-02-14 09:52:00,
2013-02-14 04:02:00,28.0,26.0,29.94,WNW,287,0.0,-999.0,92,-99.99,,,-99.99,,2013-02-14 10:02:00,
2013-02-14 04:11:00,28.0,26.0,29.94,WNW,287,0.0,-999.0,93,-99.99,,,-99.99,,2013-02-14 10:11:00,
2013-02-14 04:21:00,28.0,26.0,29.94,WNW,287,0.0,-999.0,93,-99.99,,,-99.99,,2013-02-14 10:21:00,
2013-02-14 04:31:00,28.0,26.0,29.94,WNW,287,0.0,-999.0,93,-99.99,,,-99.99,,2013-02-14 10:31:00,
2013-02-14 04:42:00,28.0,26.0,29.94,WNW,287,0.0,-999.0,93,-99.99,,,-99.99,,2013-02-14 10:42:00,
2013-02-14 04:52:00,28.0,26.0,29.94,WNW,287,0.0,-999.0,93,-99.99,,,-99.99,,2013-02-14 10:52:00,
2013-02-14 05:01:00,28.0,26.0,29.94,WNW,287,0.0,-999.0,93,-99.99,,,-99.99,,2013-02-14 11:01:00,
2013-02-14 05:11:00,28.0,26.0,29.94,WNW,287,0.0,-999.0,93,-99.99,,,-99.99,,2013-02-14 11:11:00,
2013-02-14 05:21:00,28.0,26.0,29.94,WNW,287,0.0,-999.0,93,-99.99,,,-99.99,,2013-02-14 11:21:00,
2013-02-14 05:32:00,28.0,26.0,29.95,WNW,287,0.0,-999.0,93,-99.99,,,-99.99,,2013-02-14 11:32:00,
2013-02-14 05:42:00,28.0,26.0,29.95,WNW,287,0.0,-999.0,93,-99.99,,,-99.99,,2013-02-14 11:42:00,
2013-02-14 05:52:00,28.0,26.0,29.95,WNW,287,0.0,-999.0,93,-99.99,,,-99.99,,2013-02-14 11:52:00,
2013-02-14 06:02:00,28.0,26.0,29.95,WNW,287,0.0,-999.0,93,-99.99,,,-99.99,,2013-02-14 12:02:00,
2013-02-14 06:11:00,28.0,26.0,29.95,WNW,287,0.0,-999.0,93,-99.99,,,-99.99,,2013-02-14 12:11:00,
2013-02-14 06:22:00,28.0,26.0,29.95,WNW,287,0.0,-999.0,93,-99.99,,,-99.99,,2013-02-14 12:22:00,
2013-02-14 06:32:00,28.0,26.0,29.95,WNW,287,0.0,-999.0,93,-99.99,,,-99.99,,2013-02-14 12:32:00,
2013-02-14 06:42:00,28.0,26.0,29.95,WNW,287,0.0,-999.0,93,-99.99,,,-99.99,,2013-02-14 12:42:00,
2013-02-14 06:53:00,27.0,25.0,29.96,WNW,287,0.0,-999.0,93,-99.99,,,-99.99,,2013-02-14 12:53:00,
2013-02-14 07:01:00,26.0,24.0,29.96,WNW,287,0.0,-999.0,93,-99.99,,,-99.99,,2013-02-14 13:01:00,
2013-02-14 07:11:00,26.0,24.0,29.96,WNW,287,0.0,-999.0,93,-99.99,,,-99.99,,2013-02-14 13:11:00,
2013-02-14 07:21:00,26.0,24.0,29.96,WNW,287,0.0,-999.0,93,-99.99,,,-99.99,,2013-02-14 13:21:00,
2013-02-14 07:31:00,26.0,24.0,29.97,East,90,0.0,-999.0,93,-99.99,,,-99.99,,2013-02-14 13:31:00,
2013-02-14 07:41:00,26.0,24.0,29.97,East,90,0.0,-999.0,93,-99.99,,,-99.99,,2013-02-14 13:41:00,
2013-02-14 07:52:00,26.0,24.0,29.97,East,89,0.0,-999.0,93,-99.99,,,-99.99,,2013-02-14 13:52:00,
2013-02-14 08:01:00,27.0,25.0,29.97,East,89,0.0,-999.0,93,-99.99,,,-99.99,,2013-02-14 14:01:00,
2013-02-14 08:11:00,29.0,27.0,29.98,East,89,0.0,-999.0,94,-99.99,,,-99.99,,2013-02-14 14:11:00,
2013-02-14 08:21:00,29.0,27.0,29.98,East,89,0.0,-999.0,94,-99.99,,,-99.99,,2013-02-14 14:21:00,
2013-02-14 08:31:00,30.0,28.0,29.98,NE,52,0.0,-999.0,94,-99.99,,,-99.99,,2013-02-14 14:31:00,
2013-02-14 08:41:00,30.0,28.0,29.98,NE,52,0.0,-999.0,94,-99.99,,,-99.99,,2013-02-14 14:41:00,
2013-02-14 08:52:00,31.0,29.0,29.98,NE,52,0.0,-999.0,94,-99.99,,,-99.99,,2013-02-14 14:52:00,
2013-02-14 09:01:00,32.0,30.0,29.99,West,272,1.0,-999.0,94,-99.99,,,-99.99,,2013-02-14 15:01:00,
2013-02-14 09:11:00,32.0,30.0,29.99,West,272,1.0,-999.0,94,-99.99,,,-99.99,,2013-02-14 15:11:00,
2013-02-14 09:21:00,34.0,32.0,29.99,West,272,0.0,-999.0,94,-99.99,,,-99.99,,2013-02-14 15:21:00,
2013-02-14 09:31:00,35.0,33.0,29.99,West,272,0.0,-999.0,94,-99.99,,,-99.99,,2013-02-14 15:31:00,
2013-02-14 09:41:00,35.0,33.0,29.99,West,272,0.0,-999.0,94,-99.99,,,-99.99,,2013-02-14 15:41:00,
2013-02-14 09:52:00,37.0,35.0,30.00,SW,227,1.0,-999.0,94,-99.99,,,-99.99,,2013-02-14 15:52:00,
2013-02-14 10:01:00,40.0,38.0,29.99,SW,227,0.0,-999.0,92,-99.99,,,-99.99,,2013-02-14 16:01:00,
2013-02-14 10:11:00,44.0,38.0,29.99,SW,229,2.0,-999.0,79,-99.99,,,-99.99,,2013-02-14 16:11:00,
2013-02-14 10:21:00,44.0,38.0,29.99,SW,229,2.0,-999.0,79,-99.99,,,-99.99,,2013-02-14 16:21:00,
2013-02-14 10:32:00,48.0,36.0,29.99,WSW,240,1.0,-999.0,62,-99.99,,,-99.99,,2013-02-14 16:32:00,
2013-02-14 10:41:00,48.0,36.0,29.99,WSW,240,1.0,-999.0,62,-99.99,,,-99.99,,2013-02-14 16:41:00,
2013-02-14 10:52:00,50.0,35.0,29.99,WSW,240,1.0,-999.0,56,-99.99,,,-99.99,,2013-02-14 16:52:00,
2013-02-14 11:01:00,52.0,34.0,30.00,West,271,1.0,-999.0,51,-99.99,,,-99.99,,2013-02-14 17:01:00,
2013-02-14 11:11:00,54.0,34.0,30.00,WSW,255,3.0,-999.0,47,-99.99,,,-99.99,,2013-02-14 17:11:00,
2013-02-14 11:21:00,54.0,34.0,30.00,WSW,255,3.0,-999.0,47,-99.99,,,-99.99,,2013-02-14 17:21:00,
2013-02-14 11:31:00,55.0,34.0,30.00,West,260,3.0,-999.0,45,-99.99,,,-99.99,,2013-02-14 17:31:00,
2013-02-14 11:41:00,55.0,34.0,30.00,West,260,3.0,-999.0,45,-99.99,,,-99.99,,2013-02-14 17:41:00,
2013-02-14 11:52:00,56.0,33.0,29.98,West,269,5.0,-999.0,41,-99.99,,,-99.99,,2013-02-14 17:52:00,
2013-02-14 12:01:00,57.0,33.0,29.98,WNW,282,5.0,-999.0,40,-99.99,,,-99.99,,2013-02-14 18:01:00,
2013-02-14 12:11:00,57.0,33.0,29.98,WNW,282,5.0,-999.0,40,-99.99,,,-99.99,,2013-02-14 18:11:00,
2013-02-14 12:23:00,58.0,33.0,29.98,West,275,4.0,-999.0,39,-99.99,,,-99.99,,2013-02-14 18:23:00,
2013-02-14 12:32:00,58.0,33.0,29.97,West,280,4.0,-999.0,39,-99.99,,,-99.99,,2013-02-14 18:32:00,
2013-02-14 12:41:00,58.0,33.0,29.97,West,280,4.0,-999.0,39,-99.99,,,-99.99,,2013-02-14 18:41:00,
2013-02-14 12:52:00,59.0,34.0,29.96,West,259,2.0,-999.0,39,-99.99,,,-99.99,,2013-02-14 18:52:00,
2013-02-14 13:02:00,59.0,33.0,29.96,West,264,4.0,-999.0,38,-99.99,,,-99.99,,2013-02-14 19:02:00,
2013-02-14 13:11:00,59.0,33.0,29.96,West,264,4.0,-999.0,38,-99.99,,,-99.99,,2013-02-14 19:11:00,
2013-02-14 13:21:00,60.0,34.0,29.96,NW,323,3.0,-999.0,37,-99.99,,,-99.99,,2013-02-14 19:21:00,
2013-02-14 13:31:00,60.0,34.0,29.96,WNW,292,4.0,-999.0,37,-99.99,,,-99.99,,2013-02-14 19:31:00,
2013-02-14 13:41:00,60.0,34.0,29.96,WNW,292,4.0,-999.0,37,-99.99,,,-99.99,,2013-02-14 19:41:00,
2013-02-14 13:52:00,59.0,35.0,29.96,NNW,342,3.0,-999.0,41,-99.99,,,-99.99,,2013-02-14 19:52:00,
2013-02-14 14:01:00,59.0,34.0,29.96,NNW,331,3.0,-999.0,39,-99.99,,,-99.99,,2013-02-14 20:01:00,
2013-02-14 14:11:00,59.0,35.0,29.95,WNW,302,4.0,-999.0,41,-99.99,,,-99.99,,2013-02-14 20:11:00,
2013-02-14 14:21:00,59.0,35.0,29.95,WNW,302,4.0,-999.0,41,-99.99,,,-99.99,,2013-02-14 20:21:00,
2013-02-14 14:31:00,59.0,34.0,29.95,NW,321,4.0,-999.0,39,-99.99,,,-99.99,,2013-02-14 20:31:00,
2013-02-14 14:41:00,59.0,34.0,29.95,NW,321,4.0,-999.0,39,-99.99,,,-99.99,,2013-02-14 20:41:00,
2013-02-14 14:52:00,60.0,34.0,29.96,NW,312,4.0,-999.0,38,-99.99,,,-99.99,,2013-02-14 20:52:00,
2013-02-14 15:02:00,59.0,35.0,29.95,NE,36,3.0,-999.0,40,-99.99,,,-99.99,,2013-02-14 21:02:00,
2013-02-14 15:11:00,59.0,35.0,29.95,NE,36,3.0,-999.0,40,-99.99,,,-99.99,,2013-02-14 21:11:00,
2013-02-14 15:21:00,60.0,35.0,29.95,WNW,296,3.0,-999.0,39,-99.99,,,-99.99,,2013-02-14 21:21:00,
2013-02-14 15:31:00,60.0,35.0,29.95,North,360,2.0,-999.0,39,-99.99,,,-99.99,,2013-02-14 21:31:00,
2013-02-14 15:42:00,60.0,35.0,29.95,North,360,2.0,-999.0,39,-99.99,,,-99.99,,2013-02-14 21:42:00,
2013-02-14 15:52:00,60.0,35.0,29.96,NW,315,3.0,-999.0,39,-99.99,,,-99.99,,2013-02-14 21:52:00,
2013-02-14 16:02:00,60.0,35.0,29.96,NW,313,2.0,-999.0,39,-99.99,,,-99.99,,2013-02-14 22:02:00,
2013-02-14 16:11:00,59.0,35.0,29.97,NW,317,3.0,-999.0,40,-99.99,,,-99.99,,2013-02-14 22:11:00,
2013-02-14 16:21:00,59.0,35.0,29.97,NW,317,3.0,-999.0,40,-99.99,,,-99.99,,2013-02-14 22:21:00,
2013-02-14 16:31:00,59.0,35.0,29.98,NNW,331,1.0,-999.0,41,-99.99,,,-99.99,,2013-02-14 22:31:00,
2013-02-14 16:42:00,59.0,35.0,29.98,NNW,331,1.0,-999.0,41,-99.99,,,-99.99,,2013-02-14 22:42:00,
2013-02-14 16:52:00,59.0,35.0,29.98,WNW,294,2.0,-999.0,40,-99.99,,,-99.99,,2013-02-14 22:52:00,
2013-02-14 17:01:00,59.0,35.0,29.98,WNW,294,2.0,-999.0,40,-99.99,,,-99.99,,2013-02-14 23:01:00,
2013-02-14 17:11:00,59.0,35.0,29.98,WNW,294,2.0,-999.0,40,-99.99,,,-99.99,,2013-02-14 23:11:00,
2013-02-14 17:21:00,59.0,35.0,29.98,NW,312,1.0,-999.0,41,-99.99,,,-99.99,,2013-02-14 23:21:00,
2013-02-14 17:31:00,59.0,36.0,29.99,WNW,290,3.0,-999.0,42,-99.99,,,-99.99,,2013-02-14 23:31:00,
2013-02-14 17:42:00,59.0,36.0,29.99,WNW,290,3.0,-999.0,42,-99.99,,,-99.99,,2013-02-14 23:42:00,
2013-02-14 17:52:00,57.0,35.0,29.99,WNW,293,0.0,-999.0,43,-99.99,,,-99.99,,2013-02-14 23:52:00,
2013-02-14 18:01:00,56.0,34.0,29.99,NNW,327,0.0,-999.0,44,-99.99,,,-99.99,,2013-02-15 00:01:00,
2013-02-14 18:11:00,56.0,34.0,29.99,NNW,327,0.0,-999.0,44,-99.99,,,-99.99,,2013-02-15 00:11:00,
2013-02-14 18:21:00,55.0,36.0,29.99,NNW,327,0.0,-999.0,48,-99.99,,,-99.99,,2013-02-15 00:21:00,
2013-02-14 18:31:00,53.0,37.0,30.00,NNW,327,0.0,-999.0,55,-99.99,,,-99.99,,2013-02-15 00:31:00,
2013-02-14 18:42:00,53.0,37.0,30.00,NNW,327,0.0,-999.0,55,-99.99,,,-99.99,,2013-02-15 00:42:00,
2013-02-14 18:52:00,50.0,37.0,30.01,NNW,327,0.0,-999.0,60,-99.99,,,-99.99,,2013-02-15 00:52:00,
2013-02-14 19:02:00,49.0,37.0,30.02,NNW,327,0.0,-999.0,63,-99.99,,,-99.99,,2013-02-15 01:02:00,
2013-02-14 19:21:00,48.0,37.0,30.02,NNW,327,0.0,-999.0,65,-99.99,,,-99.99,,2013-02-15 01:21:00,
2013-02-14 19:31:00,47.0,37.0,30.03,NNW,327,0.0,-999.0,68,-99.99,,,-99.99,,2013-02-15 01:31:00,
2013-02-14 19:41:00,47.0,37.0,30.03,NNW,327,0.0,-999.0,68,-99.99,,,-99.99,,2013-02-15 01:41:00,
2013-02-14 19:52:00,46.0,36.0,30.03,NNW,327,0.0,-999.0,69,-99.99,,,-99.99,,2013-02-15 01:52:00,
2013-02-14 20:01:00,45.0,36.0,30.04,NNW,327,0.0,-999.0,71,-99.99,,,-99.99,,2013-02-15 02:01:00,
2013-02-14 20:21:00,44.0,36.0,30.04,NNW,327,0.0,-999.0,72,-99.99,,,-99.99,,2013-02-15 02:21:00,
2013-02-14 20:31:00,43.0,36.0,30.05,NNW,327,0.0,-999.0,75,-99.99,,,-99.99,,2013-02-15 02:31:00,
2013-02-14 20:41:00,43.0,36.0,30.05,NNW,327,0.0,-999.0,75,-99.99,,,-99.99,,2013-02-15 02:41:00,
2013-02-14 20:52:00,43.0,36.0,30.05,NNW,327,0.0,-999.0,75,-99.99,,,-99.99,,2013-02-15 02:52:00,
2013-02-14 21:02:00,41.0,34.0,30.05,NNW,327,0.0,-999.0,77,-99.99,,,-99.99,,2013-02-15 03:02:00,
2013-02-14 21:22:00,40.0,34.0,30.06,NNW,327,0.0,-999.0,78,-99.99,,,-99.99,,2013-02-15 03:22:00,
2013-02-14 21:32:00,40.0,34.0,30.07,NNW,327,0.0,-999.0,79,-99.99,,,-99.99,,2013-02-15 03:32:00,
2013-02-14 21:52:00,40.0,34.0,30.07,NNW,327,0.0,-999.0,78,-99.99,,,-99.99,,2013-02-15 03:52:00,
2013-02-14 22:01:00,39.0,33.0,30.08,NNW,327,0.0,-999.0,79,-99.99,,,-99.99,,2013-02-15 04:01:00,
2013-02-14 22:21:00,39.0,33.0,30.08,NNW,327,0.0,-999.0,79,-99.99,,,-99.99,,2013-02-15 04:21:00,
2013-02-14 22:32:00,39.0,33.0,30.09,NNW,327,0.0,-999.0,80,-99.99,,,-99.99,,2013-02-15 04:32:00,
2013-02-14 22:52:00,39.0,33.0,30.09,NNW,327,0.0,-999.0,78,-99.99,,,-99.99,,2013-02-15 04:52:00,
2013-02-14 23:02:00,40.0,34.0,30.10,NNW,327,0.0,-999.0,79,-99.99,,,-99.99,,2013-02-15 05:02:00,
2013-02-14 23:12:00,40.0,34.0,30.10,NNW,327,0.0,-999.0,79,-99.99,,,-99.99,,2013-02-15 05:12:00,
2013-02-14 23:22:00,41.0,34.0,30.10,NNW,327,0.0,-999.0,76,-99.99,,,-99.99,,2013-02-15 05:22:00,
2013-02-14 23:32:00,43.0,35.0,30.10,WNW,298,0.0,-999.0,73,-99.99,,,-99.99,,2013-02-15 05:32:00,
2013-02-14 23:41:00,43.0,35.0,30.10,WNW,298,0.0,-999.0,73,-99.99,,,-99.99,,2013-02-15 05:41:00,
2013-02-14 23:52:00,45.0,35.0,30.09,WNW,299,0.0,-999.0,67,-99.99,,,-99.99,,2013-02-15 05:52:00,